Regional Weather Roundup
Issued by NWS

Home | Current Version | Previous Version | Text Only | Print | Product List | Glossary On
Versions: 1 2 3 4 5 6 7 8 9 10 11 12 13 14 15 16 17 18 19 20 21 22 23 24 25 26 27 28 29 30 31 32 33 34 35 36 37 38 39 40 41 42 43 44 45 46 47 48 49 50
000
ASUS43 KIND 260509
RWRIN

WEATHER ROUNDUP FOR INDIANA
NATIONAL WEATHER SERVICE INDIANAPOLIS IN
1200 AM EST WED NOV 26 2014

NOTE: "FAIR" INDICATES FEW OR NO CLOUDS BELOW 12,000 FEET WITH NO
SIGNIFICANT WEATHER AND/OR OBSTRUCTIONS TO VISIBILITY.

* - STATION DOES NOT REPORT WEATHER SUCH AS PRECIPITATION OR FOG.

+ - STATION NOT QUALITY CONTROLLED BY THE NATIONAL WEATHER SERVICE.
    USE DATA WITH CAUTION...ESPECIALLY DEWPOINT AND RELATIVE
    HUMIDITY OBSERVATIONS.

INZ001>003-010>013-019-020-260600-
NORTHWEST INDIANA

CITY           SKY/WX    TMP DP  RH WIND       PRES   REMARKS
GARY /AIRPORT/ CLOUDY    25  19  79 S5        30.22S WCI  19
KNOX *+        CLOUDY    24  19  81 S7        30.20S WCI  16
LA PORTE +     CLOUDY    26  21  82 SW5       30.21R WCI  20
MICHIGAN CITY+ CLOUDY    25  18  74 S3        30.22S
MONTICELLO +   CLOUDY    26  20  80 CALM      30.20F
RENSSELAER +   CLOUDY    27  25  93 SW6       30.21R WCI  20
VALPARAISO     CLOUDY    23  18  81 S8        30.21S WCI  14

$$

LMZ046-743>745-260600-
SOUTHERN LAKE MICHIGAN

STATION/POSITION TIME  TEMP WIND        PRES
                       AIR  DIR/SP/G
                 (UTC) (F)  (DEG/KT/KT) (MB)
MICHIGAN CITY    0500   24  190/  9/ 11   N/A

$$

INZ004-005-014>016-021>024-260600-
NORTH CENTRAL INDIANA

CITY           SKY/WX    TMP DP  RH WIND       PRES   REMARKS
GOSHEN         CLOUDY    26  19  74 S5        30.19F WCI  20
LOGANSPORT +   CLOUDY    27  19  74 CALM      30.21F
PERU/GRISSOM   CLOUDY    25  23  93 S3        30.19S
ROCHESTER +    CLOUDY    28  23  80 S5        30.21S WCI  23
SOUTH BEND     CLOUDY    25  19  78 SW9       30.20F WCI  15
WARSAW +       CLOUDY    27  19  74 S3        30.20S

$$

INZ006>009-017-018-025>027-260600-
NORTHEAST INDIANA

CITY           SKY/WX    TMP DP  RH WIND       PRES   REMARKS
ANGOLA *+      CLOUDY    25  18  74 S3        30.18F
AUBURN +       CLOUDY    27  19  74 CALM      30.20S
FORT WAYNE     CLOUDY    26  20  77 CALM      30.22R
HUNTINGTON +   CLOUDY    25  21  82 CALM      30.20S

$$

INZ028-029-035-036-043>045-051>053-260600-
WEST CENTRAL INDIANA

CITY           SKY/WX    TMP DP  RH WIND       PRES   REMARKS
GREENCASTLE +  CLOUDY    27  21  80 N3        30.20S
LAFAYETTE      CLOUDY    25  19  78 SW3       30.20F
TERRE HAUTE    CLOUDY    28  21  75 CALM      30.20F

$$

INZ030>032-037>040-046>048-054>057-064-065-260600-
CENTRAL INDIANA

CITY           SKY/WX    TMP DP  RH WIND       PRES   REMARKS
CP ATTERBURY + CLOUDY    30  27  86 N5        30.19F WCI  25
FRANKFORT +    CLOUDY    26  22  85 S3        30.21S
INDIANAPOLIS   CLOUDY    26  21  81 W6        30.18F WCI  19
-EAGLE CREEK   CLOUDY    26  21  81 CALM      30.19S
KOKOMO *+      CLOUDY    25  18  74 CALM      30.20S
MARION +         N/A     26  21  83 CALM      30.20S
MT COMFORT *+  CLOUDY    27  18  69 N5        30.19S WCI  21
SHELBYVILLE    CLOUDY    30  23  75 NW6       30.18F WCI  24
ZIONSVILLE +   CLOUDY    27  21  79 W5        30.20R WCI  21

$$

INZ033-034-041-042-049-050-058-059-260600-
EAST CENTRAL INDIANA

CITY           SKY/WX    TMP DP  RH WIND       PRES   REMARKS
MUNCIE         CLOUDY    28  23  81 CALM      30.18F

$$

INZ060-061-067>069-081>083-085>088-260600-
SOUTHWEST INDIANA

CITY           SKY/WX    TMP DP  RH WIND       PRES   REMARKS
EVANSVILLE     CLEAR     29  25  85 N3        30.20F
HUNTINGBURG *+ CLEAR     27  21  80 N5        30.20S WCI  21
WASHINGTON +   CLOUDY    30  26  86 N5        30.20S WCI  25

$$

INZ062-063-066-070>080-084-089>092-260600-
SOUTH CENTRAL AND SOUTHEAST INDIANA

CITY           SKY/WX    TMP DP  RH WIND       PRES   REMARKS
BLOOMINGTON    CLOUDY    28  23  81 N6        30.18S WCI  22

$$




USA.gov is the U.S. government's official web portal to all federal, state and local government web resources and services.